Terug naar catalogus

O3B MPOWER F7

ActiefCommunicatieMEO
NORAD 62362·PAYLOAD·🇱🇺 Luxembourg

Gelanceerd Dec 17, 2024 vanaf Cape Canaveral Space Force Station

Loading…

Volgende Passages (komende 24 uur)

TLE

VersSource: CelesTrak SupGP

Epoch: Sep 13, 2026, 16:59 UTC

1 62362C 24244A   26256.70833333  .00000000  00000+0  00000+0 0  2560
2 62362   0.0592 335.2624 0005723 192.7099 338.2557  5.00115479    12

Volg O3B MPOWER F7 in realtime met AllMySat

Download on the App Store